Year,Month,Day,Hour,Minute,Value (Times are PST for temperature in C)
2008,02,22,00,00,1.20
2008,02,22,00,01,1.30
2008,02,22,00,02,1.30
2008,02,22,00,03,1.30
2008,02,22,00,04,1.20
2008,02,22,00,05,1.20
2008,02,22,00,06,1.20
2008,02,22,00,07,1.20
2008,02,22,00,08,1.30
2008,02,22,00,09,1.20
2008,02,22,00,10,1.20
2008,02,22,00,11,1.20
2008,02,22,00,12,1.20
2008,02,22,00,13,1.10
2008,02,22,00,14,1.10
2008,02,22,00,15,1.00
2008,02,22,00,16,1.00
2008,02,22,00,17,1.00
2008,02,22,00,18,0.90
2008,02,22,00,19,0.90
2008,02,22,00,20,0.90
2008,02,22,00,21,0.90
2008,02,22,00,22,0.90
2008,02,22,00,23,0.90
2008,02,22,00,24,0.90
2008,02,22,00,25,0.90
2008,02,22,00,26,0.90
2008,02,22,00,27,0.90
2008,02,22,00,28,0.90
2008,02,22,00,29,0.90
2008,02,22,00,30,0.90
2008,02,22,00,31,0.80
2008,02,22,00,32,0.90
2008,02,22,00,33,0.90
2008,02,22,00,34,1.00
2008,02,22,00,35,1.10
2008,02,22,00,36,1.10
2008,02,22,00,37,1.10
2008,02,22,00,38,1.20
2008,02,22,00,39,1.30
2008,02,22,00,40,1.30
2008,02,22,00,41,1.20
2008,02,22,00,42,1.10
2008,02,22,00,43,1.00
2008,02,22,00,44,0.90
2008,02,22,00,45,0.90
2008,02,22,00,46,0.80
2008,02,22,00,47,0.80
2008,02,22,00,48,0.80
2008,02,22,00,49,0.70
2008,02,22,00,50,0.70
2008,02,22,00,51,0.70
2008,02,22,00,52,0.70
2008,02,22,00,53,0.70
2008,02,22,00,54,0.70
2008,02,22,00,55,0.70
2008,02,22,00,56,0.70
2008,02,22,00,57,0.80
2008,02,22,00,58,0.80
2008,02,22,00,59,0.90
2008,02,22,01,00,0.90
2008,02,22,01,01,0.90
2008,02,22,01,02,0.90
2008,02,22,01,03,0.90
2008,02,22,01,04,0.90
2008,02,22,01,05,0.90
2008,02,22,01,06,0.90
2008,02,22,01,07,0.80
2008,02,22,01,08,0.80
2008,02,22,01,09,0.70
2008,02,22,01,10,0.70
2008,02,22,01,11,0.60
2008,02,22,01,12,0.60
2008,02,22,01,13,0.60
2008,02,22,01,14,0.60
2008,02,22,01,15,0.60
2008,02,22,01,16,0.60
2008,02,22,01,17,0.60
2008,02,22,01,18,0.60
2008,02,22,01,19,0.60
2008,02,22,01,20,0.60
2008,02,22,01,21,0.60
2008,02,22,01,22,0.60
2008,02,22,01,23,0.60
2008,02,22,01,24,0.60
2008,02,22,01,25,0.60
2008,02,22,01,26,0.60
2008,02,22,01,27,0.60
2008,02,22,01,28,0.60
2008,02,22,01,29,0.70
2008,02,22,01,30,0.70
2008,02,22,01,31,0.70
2008,02,22,01,32,0.80
2008,02,22,01,33,0.80
2008,02,22,01,34,0.80
2008,02,22,01,35,0.80
2008,02,22,01,36,0.70
2008,02,22,01,37,0.70
2008,02,22,01,38,0.70
2008,02,22,01,39,0.70
2008,02,22,01,40,0.70
2008,02,22,01,41,0.70
2008,02,22,01,42,0.60
2008,02,22,01,43,0.60
2008,02,22,01,44,0.60
2008,02,22,01,45,0.70
2008,02,22,01,46,0.70
2008,02,22,01,47,0.70
2008,02,22,01,48,0.70
2008,02,22,01,49,0.80
2008,02,22,01,50,0.80
2008,02,22,01,51,0.80
2008,02,22,01,52,0.90
2008,02,22,01,53,0.90
2008,02,22,01,54,0.90
2008,02,22,01,55,0.90
2008,02,22,01,56,0.90
2008,02,22,01,57,0.90
2008,02,22,01,58,0.90
2008,02,22,01,59,0.90
2008,02,22,02,00,0.90
2008,02,22,02,01,0.90
2008,02,22,02,02,1.00
2008,02,22,02,03,1.00
2008,02,22,02,04,1.10
2008,02,22,02,05,1.10
2008,02,22,02,06,1.20
2008,02,22,02,07,1.30
2008,02,22,02,08,1.30
2008,02,22,02,09,1.30
2008,02,22,02,10,1.30
2008,02,22,02,11,1.30
2008,02,22,02,12,1.30
2008,02,22,02,13,1.30
2008,02,22,02,14,1.30
2008,02,22,02,15,1.40
2008,02,22,02,16,1.40
2008,02,22,02,17,1.40
2008,02,22,02,18,1.30
2008,02,22,02,19,1.30
2008,02,22,02,20,1.30
2008,02,22,02,21,1.30
2008,02,22,02,22,1.30
2008,02,22,02,23,1.30
2008,02,22,02,24,1.30
2008,02,22,02,25,1.30
2008,02,22,02,26,1.30
2008,02,22,02,27,1.30
2008,02,22,02,28,1.40
2008,02,22,02,29,1.40
2008,02,22,02,30,1.40
2008,02,22,02,31,1.50
2008,02,22,02,32,1.60
2008,02,22,02,33,1.60
2008,02,22,02,34,1.60
2008,02,22,02,35,1.50
2008,02,22,02,36,1.50
2008,02,22,02,37,1.40
2008,02,22,02,38,1.30
2008,02,22,02,39,1.30
2008,02,22,02,40,1.30
2008,02,22,02,41,1.30
2008,02,22,02,42,1.30
2008,02,22,02,43,1.30
2008,02,22,02,44,1.30
2008,02,22,02,45,1.30
2008,02,22,02,46,1.30
2008,02,22,02,47,1.30
2008,02,22,02,48,1.50
2008,02,22,02,49,1.60
2008,02,22,02,50,1.80
2008,02,22,02,51,1.90
2008,02,22,02,52,1.90
2008,02,22,02,53,1.90
2008,02,22,02,54,1.80
2008,02,22,02,55,1.80
2008,02,22,02,56,1.80
2008,02,22,02,57,1.70
2008,02,22,02,58,1.60
2008,02,22,02,59,1.60
2008,02,22,03,00,1.50
2008,02,22,03,01,1.50
2008,02,22,03,02,1.50
2008,02,22,03,03,1.40
2008,02,22,03,04,1.50
2008,02,22,03,05,1.50
2008,02,22,03,06,1.60
2008,02,22,03,07,1.60
2008,02,22,03,08,1.70
2008,02,22,03,09,1.80
2008,02,22,03,10,1.90
2008,02,22,03,11,1.90
2008,02,22,03,12,2.00
2008,02,22,03,13,2.10
2008,02,22,03,14,2.10
2008,02,22,03,15,2.20
2008,02,22,03,16,2.20
2008,02,22,03,17,2.20
2008,02,22,03,18,2.20
2008,02,22,03,19,2.20
2008,02,22,03,20,2.20
2008,02,22,03,21,2.20
2008,02,22,03,22,2.20
2008,02,22,03,23,2.20
2008,02,22,03,24,2.20
2008,02,22,03,25,2.20
2008,02,22,03,26,2.30
2008,02,22,03,27,2.50
2008,02,22,03,28,2.60
2008,02,22,03,29,2.80
2008,02,22,03,30,2.80
2008,02,22,03,31,3.00
2008,02,22,03,32,3.00
2008,02,22,03,33,3.10
2008,02,22,03,34,3.30
2008,02,22,03,35,3.30
2008,02,22,03,36,3.30
2008,02,22,03,37,3.30
2008,02,22,03,38,3.30
2008,02,22,03,39,3.30
2008,02,22,03,40,3.30
2008,02,22,03,41,3.30
2008,02,22,03,42,3.30
2008,02,22,03,43,3.30
2008,02,22,03,44,3.30
2008,02,22,03,45,3.30
2008,02,22,03,46,3.30
2008,02,22,03,47,3.40
2008,02,22,03,48,3.50
2008,02,22,03,49,3.50
2008,02,22,03,50,3.60
2008,02,22,03,51,3.60
2008,02,22,03,52,3.60
2008,02,22,03,53,3.70
2008,02,22,03,54,3.80
2008,02,22,03,55,3.80
2008,02,22,03,56,3.90
2008,02,22,03,57,3.90
2008,02,22,03,58,3.90
2008,02,22,03,59,3.90
2008,02,22,04,00,3.90
2008,02,22,04,01,3.80
2008,02,22,04,02,3.70
2008,02,22,04,03,3.60
2008,02,22,04,04,3.60
2008,02,22,04,05,3.50
2008,02,22,04,06,3.50
2008,02,22,04,07,3.40
2008,02,22,04,08,3.40
2008,02,22,04,09,3.40
2008,02,22,04,10,3.40
2008,02,22,04,11,3.40
2008,02,22,04,12,3.40
2008,02,22,04,13,3.50
2008,02,22,04,14,3.50
2008,02,22,04,15,3.50
2008,02,22,04,16,3.50
2008,02,22,04,17,3.50
2008,02,22,04,18,3.50
2008,02,22,04,19,3.50
2008,02,22,04,20,3.50
2008,02,22,04,21,3.60
2008,02,22,04,22,3.60
2008,02,22,04,23,3.60
2008,02,22,04,24,3.70
2008,02,22,04,25,3.70
2008,02,22,04,26,3.70
2008,02,22,04,27,3.70
2008,02,22,04,28,3.80
2008,02,22,04,29,3.80
2008,02,22,04,30,3.90
2008,02,22,04,31,3.90
2008,02,22,04,32,3.90
2008,02,22,04,33,3.90
2008,02,22,04,34,4.00
2008,02,22,04,35,4.00
2008,02,22,04,36,4.10
2008,02,22,04,37,4.10
2008,02,22,04,38,4.10
2008,02,22,04,39,4.10
2008,02,22,04,40,4.20
2008,02,22,04,41,4.20
2008,02,22,04,42,4.30
2008,02,22,04,43,4.30
2008,02,22,04,44,4.40
2008,02,22,04,45,4.40
2008,02,22,04,46,4.50
2008,02,22,04,47,4.50
2008,02,22,04,48,4.60
2008,02,22,04,49,4.60
2008,02,22,04,50,4.70
2008,02,22,04,51,4.70
2008,02,22,04,52,4.80
2008,02,22,04,53,4.80
2008,02,22,04,54,4.90
2008,02,22,04,55,5.00
2008,02,22,04,56,5.10
2008,02,22,04,57,5.10
2008,02,22,04,58,5.10
2008,02,22,04,59,5.10
2008,02,22,05,00,5.10
2008,02,22,05,01,5.10
2008,02,22,05,02,5.10
2008,02,22,05,03,5.10
2008,02,22,05,04,5.20
2008,02,22,05,05,5.20
2008,02,22,05,06,5.20
2008,02,22,05,07,5.20
2008,02,22,05,08,5.20
2008,02,22,05,09,5.20
2008,02,22,05,10,5.20
2008,02,22,05,11,5.20
2008,02,22,05,12,5.30
2008,02,22,05,13,5.30
2008,02,22,05,14,5.30
2008,02,22,05,15,5.30
2008,02,22,05,16,5.30
2008,02,22,05,17,5.30
2008,02,22,05,18,5.30
2008,02,22,05,19,5.30
2008,02,22,05,20,5.30
2008,02,22,05,21,5.30
2008,02,22,05,22,5.30
2008,02,22,05,23,5.30
2008,02,22,05,24,5.30
2008,02,22,05,25,5.30
2008,02,22,05,26,5.30
2008,02,22,05,27,5.30
2008,02,22,05,28,5.30
2008,02,22,05,29,5.30
2008,02,22,05,30,5.30
2008,02,22,05,31,5.30
2008,02,22,05,32,5.40
2008,02,22,05,33,5.40
2008,02,22,05,34,5.40
2008,02,22,05,35,5.40
2008,02,22,05,36,5.40
2008,02,22,05,37,5.40
2008,02,22,05,38,5.40
2008,02,22,05,39,5.40
2008,02,22,05,40,5.40
2008,02,22,05,41,5.40
2008,02,22,05,42,5.50
2008,02,22,05,43,5.50
2008,02,22,05,44,5.50
2008,02,22,05,45,5.50
2008,02,22,05,46,5.50
2008,02,22,05,47,5.50
2008,02,22,05,48,5.50
2008,02,22,05,49,5.60
2008,02,22,05,50,5.60
2008,02,22,05,51,5.60
2008,02,22,05,52,5.60
2008,02,22,05,53,5.60
2008,02,22,05,54,5.60
2008,02,22,05,55,5.60
2008,02,22,05,56,5.60
2008,02,22,05,57,5.60
2008,02,22,05,58,5.60
2008,02,22,05,59,5.60
2008,02,22,06,00,5.70
2008,02,22,06,01,5.70
2008,02,22,06,02,5.70
2008,02,22,06,03,5.70
2008,02,22,06,04,5.70
2008,02,22,06,05,5.70
2008,02,22,06,06,5.70
2008,02,22,06,07,5.70
2008,02,22,06,08,5.70
2008,02,22,06,09,5.70
2008,02,22,06,10,5.70
2008,02,22,06,11,5.70
2008,02,22,06,12,5.70
2008,02,22,06,13,5.70
2008,02,22,06,14,5.70
2008,02,22,06,15,5.60
2008,02,22,06,16,5.60
2008,02,22,06,17,5.60
2008,02,22,06,18,5.60
2008,02,22,06,19,5.60
2008,02,22,06,20,5.60
2008,02,22,06,21,5.60
2008,02,22,06,22,5.60
2008,02,22,06,23,5.60
2008,02,22,06,24,5.60
2008,02,22,06,25,5.60
2008,02,22,06,26,5.60
2008,02,22,06,27,5.60
2008,02,22,06,28,5.60
2008,02,22,06,29,5.60
2008,02,22,06,30,5.60
2008,02,22,06,31,5.60
2008,02,22,06,32,5.60
2008,02,22,06,33,5.60
2008,02,22,06,34,5.60
2008,02,22,06,35,5.60
2008,02,22,06,36,5.60
2008,02,22,06,37,5.60
2008,02,22,06,38,5.60
2008,02,22,06,39,5.60
2008,02,22,06,40,5.60
2008,02,22,06,41,5.60
2008,02,22,06,42,5.60
2008,02,22,06,43,5.60
2008,02,22,06,44,5.50
2008,02,22,06,45,5.50
2008,02,22,06,46,5.60
2008,02,22,06,47,5.50
2008,02,22,06,48,5.50
2008,02,22,06,49,5.50
2008,02,22,06,50,5.50
2008,02,22,06,51,5.60
2008,02,22,06,52,5.60
2008,02,22,06,53,5.50
2008,02,22,06,54,5.50
2008,02,22,06,55,5.50
2008,02,22,06,56,5.50
2008,02,22,06,57,5.50
2008,02,22,06,58,5.50
2008,02,22,06,59,5.50
2008,02,22,07,00,5.50
2008,02,22,07,01,5.50
2008,02,22,07,02,5.50
2008,02,22,07,03,5.50
2008,02,22,07,04,5.50
2008,02,22,07,05,5.50
2008,02,22,07,06,5.50
2008,02,22,07,07,5.40
2008,02,22,07,08,5.40
2008,02,22,07,09,5.40
2008,02,22,07,10,5.40
2008,02,22,07,11,5.40
2008,02,22,07,12,5.40
2008,02,22,07,13,5.40
2008,02,22,07,14,5.30
2008,02,22,07,15,5.30
2008,02,22,07,16,5.30
2008,02,22,07,17,5.30
2008,02,22,07,18,5.30
2008,02,22,07,19,5.30
2008,02,22,07,20,5.30
2008,02,22,07,21,5.30
2008,02,22,07,22,5.30
2008,02,22,07,23,5.30
2008,02,22,07,24,5.30
2008,02,22,07,25,5.30
2008,02,22,07,26,5.20
2008,02,22,07,27,5.20
2008,02,22,07,28,5.20
2008,02,22,07,29,5.20
2008,02,22,07,30,5.20
2008,02,22,07,31,5.20
2008,02,22,07,32,5.20
2008,02,22,07,33,5.20
2008,02,22,07,34,5.20
2008,02,22,07,35,5.20
2008,02,22,07,36,5.20
2008,02,22,07,37,5.20
2008,02,22,07,38,5.20
2008,02,22,07,39,5.20
2008,02,22,07,40,5.20
2008,02,22,07,41,5.20
2008,02,22,07,42,5.20
2008,02,22,07,43,5.20
2008,02,22,07,44,5.10
2008,02,22,07,45,5.10
2008,02,22,07,46,5.10
2008,02,22,07,47,5.10
2008,02,22,07,48,5.10
2008,02,22,07,49,5.10
2008,02,22,07,50,5.10
2008,02,22,07,51,5.00
2008,02,22,07,52,5.00
2008,02,22,07,53,5.00
2008,02,22,07,54,5.00
2008,02,22,07,55,5.00
2008,02,22,07,56,5.00
2008,02,22,07,57,5.00
2008,02,22,07,58,5.00
2008,02,22,07,59,5.00
2008,02,22,08,00,5.00
2008,02,22,08,01,5.10
2008,02,22,08,02,5.10
2008,02,22,08,03,5.10
2008,02,22,08,04,5.10
2008,02,22,08,05,5.20
2008,02,22,08,06,5.20
2008,02,22,08,07,5.20
2008,02,22,08,08,5.20
2008,02,22,08,09,5.30
2008,02,22,08,10,5.30
2008,02,22,08,11,5.30
2008,02,22,08,12,5.30
2008,02,22,08,13,5.30
2008,02,22,08,14,5.20
2008,02,22,08,15,5.20
2008,02,22,08,16,5.20
2008,02,22,08,17,5.20
2008,02,22,08,18,5.20
2008,02,22,08,19,5.20
2008,02,22,08,20,5.20
2008,02,22,08,21,5.20
2008,02,22,08,22,5.30
2008,02,22,08,23,5.30
2008,02,22,08,24,5.40
2008,02,22,08,25,5.40
2008,02,22,08,26,5.50
2008,02,22,08,27,5.60
2008,02,22,08,28,5.70
2008,02,22,08,29,5.70
2008,02,22,08,30,5.80
2008,02,22,08,31,5.80
2008,02,22,08,32,5.90
2008,02,22,08,33,6.00
2008,02,22,08,34,6.10
2008,02,22,08,35,6.20
2008,02,22,08,36,6.20
2008,02,22,08,37,6.30
2008,02,22,08,38,6.30
2008,02,22,08,39,6.30
2008,02,22,08,40,6.40
2008,02,22,08,41,6.50
2008,02,22,08,42,6.60
2008,02,22,08,43,6.70
2008,02,22,08,44,6.70
2008,02,22,08,45,6.80
2008,02,22,08,46,6.80
2008,02,22,08,47,6.90
2008,02,22,08,48,7.00
2008,02,22,08,49,7.10
2008,02,22,08,50,7.20
2008,02,22,08,51,7.20
2008,02,22,08,52,7.20
2008,02,22,08,53,7.30
2008,02,22,08,54,7.40
2008,02,22,08,55,7.40
2008,02,22,08,56,7.50
2008,02,22,08,57,7.50
2008,02,22,08,58,7.60
2008,02,22,08,59,7.60
2008,02,22,09,00,7.70
2008,02,22,09,01,7.70
2008,02,22,09,02,7.70
2008,02,22,09,03,7.80
2008,02,22,09,04,7.80
2008,02,22,09,05,7.80
2008,02,22,09,06,7.80
2008,02,22,09,07,7.80
2008,02,22,09,08,7.90
2008,02,22,09,09,7.90
2008,02,22,09,10,7.90
2008,02,22,09,11,7.90
2008,02,22,09,12,8.00
2008,02,22,09,13,8.00
2008,02,22,09,14,8.00
2008,02,22,09,15,8.00
2008,02,22,09,16,8.00
2008,02,22,09,17,8.00
2008,02,22,09,18,8.00
2008,02,22,09,19,8.00
2008,02,22,09,20,8.10
2008,02,22,09,21,8.10
2008,02,22,09,22,8.10
2008,02,22,09,23,8.10
2008,02,22,09,24,8.20
2008,02,22,09,25,8.20
2008,02,22,09,26,8.20
2008,02,22,09,27,8.30
2008,02,22,09,28,8.30
2008,02,22,09,29,8.30
2008,02,22,09,30,8.30
2008,02,22,09,31,8.30
2008,02,22,09,32,8.30
2008,02,22,09,33,8.30
2008,02,22,09,34,8.30
2008,02,22,09,35,8.30
2008,02,22,09,36,8.30
2008,02,22,09,37,8.30
2008,02,22,09,38,8.30
2008,02,22,09,39,8.30
2008,02,22,09,40,8.30
2008,02,22,09,41,8.30
2008,02,22,09,42,8.30
2008,02,22,09,43,8.30
2008,02,22,09,44,8.30
2008,02,22,09,45,8.30
2008,02,22,09,46,8.30
2008,02,22,09,47,8.30
2008,02,22,09,48,8.30
2008,02,22,09,49,8.30
2008,02,22,09,50,8.30
2008,02,22,09,51,8.30
2008,02,22,09,52,8.30
2008,02,22,09,53,8.30
2008,02,22,09,54,8.30
2008,02,22,09,55,8.40
2008,02,22,09,56,8.40
2008,02,22,09,57,8.50
2008,02,22,09,58,8.50
2008,02,22,09,59,8.60
2008,02,22,10,00,8.60
2008,02,22,10,01,8.60
2008,02,22,10,02,8.60
2008,02,22,10,03,8.60
2008,02,22,10,04,8.60
2008,02,22,10,05,8.60
2008,02,22,10,06,8.60
2008,02,22,10,07,8.60
2008,02,22,10,08,8.60
2008,02,22,10,09,8.60
2008,02,22,10,10,8.70
2008,02,22,10,11,8.70
2008,02,22,10,12,8.80
2008,02,22,10,13,8.80
2008,02,22,10,14,8.80
2008,02,22,10,15,8.80
2008,02,22,10,16,8.90
2008,02,22,10,17,8.90
2008,02,22,10,18,9.00
2008,02,22,10,19,9.00
2008,02,22,10,20,9.00
2008,02,22,10,21,9.10
2008,02,22,10,22,9.20
2008,02,22,10,23,9.20
2008,02,22,10,24,9.30
2008,02,22,10,25,9.30
2008,02,22,10,26,9.30
2008,02,22,10,27,9.40
2008,02,22,10,28,9.40
2008,02,22,10,29,9.40
2008,02,22,10,30,9.40
2008,02,22,10,31,9.40
2008,02,22,10,32,9.40
2008,02,22,10,33,9.30
2008,02,22,10,34,9.30
2008,02,22,10,35,9.30
2008,02,22,10,36,9.30
2008,02,22,10,37,9.30
2008,02,22,10,38,9.30
2008,02,22,10,39,9.30
2008,02,22,10,40,9.40
2008,02,22,10,41,9.40
2008,02,22,10,42,9.40
2008,02,22,10,43,9.50
2008,02,22,10,44,9.50
2008,02,22,10,45,9.50
2008,02,22,10,46,9.50
2008,02,22,10,47,9.50
2008,02,22,10,48,9.60
2008,02,22,10,49,9.60
2008,02,22,10,50,9.60
2008,02,22,10,51,9.60
2008,02,22,10,52,9.60
2008,02,22,10,53,9.60
2008,02,22,10,54,9.60
2008,02,22,10,55,9.70
2008,02,22,10,56,9.70
2008,02,22,10,57,9.70
2008,02,22,10,58,9.70
2008,02,22,10,59,9.70
2008,02,22,11,00,9.70
2008,02,22,11,01,9.60
2008,02,22,11,02,9.60
2008,02,22,11,03,9.60
2008,02,22,11,04,9.60
2008,02,22,11,05,9.60
2008,02,22,11,06,9.60
2008,02,22,11,07,9.70
2008,02,22,11,08,9.70
2008,02,22,11,09,9.70
2008,02,22,11,10,9.70
2008,02,22,11,11,9.70
2008,02,22,11,12,9.80
2008,02,22,11,13,9.80
2008,02,22,11,14,9.70
2008,02,22,11,15,9.70
2008,02,22,11,16,9.70
2008,02,22,11,17,9.70
2008,02,22,11,18,9.70
2008,02,22,11,19,9.70
2008,02,22,11,20,9.70
2008,02,22,11,21,9.70
2008,02,22,11,22,9.60
2008,02,22,11,23,9.70
2008,02,22,11,24,9.70
2008,02,22,11,25,9.70
2008,02,22,11,26,9.70
2008,02,22,11,27,9.70
2008,02,22,11,28,9.80
2008,02,22,11,29,9.80
2008,02,22,11,30,9.80
2008,02,22,11,31,9.80
2008,02,22,11,32,9.80
2008,02,22,11,33,9.80
2008,02,22,11,34,9.80
2008,02,22,11,35,9.80
2008,02,22,11,36,9.90
2008,02,22,11,37,10.00
2008,02,22,11,38,10.10
2008,02,22,11,39,10.10
2008,02,22,11,40,10.10
2008,02,22,11,41,10.20
2008,02,22,11,42,10.10
2008,02,22,11,43,10.20
2008,02,22,11,44,10.20
2008,02,22,11,45,10.10
2008,02,22,11,46,10.10
2008,02,22,11,47,10.10
2008,02,22,11,48,10.10
2008,02,22,11,49,10.10
2008,02,22,11,50,10.20
2008,02,22,11,51,10.20
2008,02,22,11,52,10.30
2008,02,22,11,53,10.30
2008,02,22,11,54,10.30
2008,02,22,11,55,10.40
2008,02,22,11,56,10.40
2008,02,22,11,57,10.40
2008,02,22,11,58,10.40
2008,02,22,11,59,10.40
2008,02,22,12,00,10.40
2008,02,22,12,01,10.50
2008,02,22,12,02,10.50
2008,02,22,12,03,10.50
2008,02,22,12,04,10.50
2008,02,22,12,05,10.60
2008,02,22,12,06,10.60
2008,02,22,12,07,10.60
2008,02,22,12,08,10.60
2008,02,22,12,09,10.70
2008,02,22,12,10,10.70
2008,02,22,12,11,10.70
2008,02,22,12,12,10.80
2008,02,22,12,13,10.80
2008,02,22,12,14,10.80
2008,02,22,12,15,10.80
2008,02,22,12,16,10.90
2008,02,22,12,17,10.90
2008,02,22,12,18,10.80
2008,02,22,12,19,10.80
2008,02,22,12,20,10.80
2008,02,22,12,21,10.80
2008,02,22,12,22,10.90
2008,02,22,12,23,10.90
2008,02,22,12,24,10.90
2008,02,22,12,25,10.90
2008,02,22,12,26,10.90
2008,02,22,12,27,11.00
2008,02,22,12,28,11.00
2008,02,22,12,29,10.90
2008,02,22,12,30,10.90
2008,02,22,12,31,11.00
2008,02,22,12,32,11.00
2008,02,22,12,33,11.10
2008,02,22,12,34,11.10
2008,02,22,12,35,11.10
2008,02,22,12,36,11.10
2008,02,22,12,37,11.10
2008,02,22,12,38,11.10
2008,02,22,12,39,11.00
2008,02,22,12,40,11.00
2008,02,22,12,41,11.10
2008,02,22,12,42,11.10
2008,02,22,12,43,11.10
2008,02,22,12,44,11.20
2008,02,22,12,45,11.20
2008,02,22,12,46,11.20
2008,02,22,12,47,11.30
2008,02,22,12,48,11.30
2008,02,22,12,49,11.30
2008,02,22,12,50,11.30
2008,02,22,12,51,11.40
2008,02,22,12,52,11.40
2008,02,22,12,53,11.40
2008,02,22,12,54,11.40
2008,02,22,12,55,11.30
2008,02,22,12,56,11.30
2008,02,22,12,57,11.30
2008,02,22,12,58,11.30
2008,02,22,12,59,11.30
2008,02,22,13,00,11.30
2008,02,22,13,01,11.30
2008,02,22,13,02,11.30
2008,02,22,13,03,11.30
2008,02,22,13,04,11.30
2008,02,22,13,05,11.40
2008,02,22,13,06,11.40
2008,02,22,13,07,11.40
2008,02,22,13,08,11.40
2008,02,22,13,09,11.50
2008,02,22,13,10,11.50
2008,02,22,13,11,11.50
2008,02,22,13,12,11.50
2008,02,22,13,13,11.50
2008,02,22,13,14,11.40
2008,02,22,13,15,11.40
2008,02,22,13,16,11.30
2008,02,22,13,17,11.40
2008,02,22,13,18,11.40
2008,02,22,13,19,11.40
2008,02,22,13,20,11.50
2008,02,22,13,21,11.50
2008,02,22,13,22,11.60
2008,02,22,13,23,11.70
2008,02,22,13,24,11.70
2008,02,22,13,25,11.70
2008,02,22,13,26,11.70
2008,02,22,13,27,11.70
2008,02,22,13,28,11.70
2008,02,22,13,29,11.80
2008,02,22,13,30,11.80
2008,02,22,13,31,11.80
2008,02,22,13,32,11.90
2008,02,22,13,33,12.00
2008,02,22,13,34,12.10
2008,02,22,13,35,12.10
2008,02,22,13,36,12.10
2008,02,22,13,37,12.10
2008,02,22,13,38,12.10
2008,02,22,13,39,12.20
2008,02,22,13,40,12.20
2008,02,22,13,41,12.20
2008,02,22,13,42,12.20
2008,02,22,13,43,12.10
2008,02,22,13,44,12.10
2008,02,22,13,45,12.10
2008,02,22,13,46,12.10
2008,02,22,13,47,12.10
2008,02,22,13,48,12.10
2008,02,22,13,49,12.00
2008,02,22,13,50,11.90
2008,02,22,13,51,11.80
2008,02,22,13,52,11.70
2008,02,22,13,53,11.70
2008,02,22,13,54,11.70
2008,02,22,13,55,11.70
2008,02,22,13,56,11.60
2008,02,22,13,57,11.60
2008,02,22,13,58,11.60
2008,02,22,13,59,11.70
2008,02,22,14,00,11.70
2008,02,22,14,01,11.60
2008,02,22,14,02,11.60
2008,02,22,14,03,11.60
2008,02,22,14,04,11.70
2008,02,22,14,05,11.70
2008,02,22,14,06,11.70
2008,02,22,14,07,11.70
2008,02,22,14,08,11.70
2008,02,22,14,09,11.70
2008,02,22,14,10,11.70
2008,02,22,14,11,11.80
2008,02,22,14,12,11.80
2008,02,22,14,13,11.80
2008,02,22,14,14,11.90
2008,02,22,14,15,11.90
2008,02,22,14,16,11.90
2008,02,22,14,17,11.90
2008,02,22,14,18,11.90
2008,02,22,14,19,11.90
2008,02,22,14,20,11.90
2008,02,22,14,21,12.00
2008,02,22,14,22,12.00
2008,02,22,14,23,12.00
2008,02,22,14,24,12.00
2008,02,22,14,25,12.00
2008,02,22,14,26,12.00
2008,02,22,14,27,12.00
2008,02,22,14,28,12.00
2008,02,22,14,29,12.00
2008,02,22,14,30,12.10
2008,02,22,14,31,12.10
2008,02,22,14,32,12.20
2008,02,22,14,33,12.30
2008,02,22,14,34,12.30
2008,02,22,14,35,12.40
2008,02,22,14,36,12.40
2008,02,22,14,37,12.40
2008,02,22,14,38,12.40
2008,02,22,14,39,12.40
2008,02,22,14,40,12.40
2008,02,22,14,41,12.30
2008,02,22,14,42,12.30
2008,02,22,14,43,12.20
2008,02,22,14,44,12.20
2008,02,22,14,45,12.20
2008,02,22,14,46,12.20
2008,02,22,14,47,12.20
2008,02,22,14,48,12.20
2008,02,22,14,49,12.20
2008,02,22,14,50,12.30
2008,02,22,14,51,12.30
2008,02,22,14,52,12.30
2008,02,22,14,53,12.30
2008,02,22,14,54,12.30
2008,02,22,14,55,12.30
2008,02,22,14,56,12.30
2008,02,22,14,57,12.30
2008,02,22,14,58,12.30
2008,02,22,14,59,12.40
2008,02,22,15,00,12.40
2008,02,22,15,01,12.40
2008,02,22,15,02,12.40
2008,02,22,15,03,12.40
2008,02,22,15,04,12.40
2008,02,22,15,05,12.40
2008,02,22,15,06,12.40
2008,02,22,15,07,12.50
2008,02,22,15,08,12.50
2008,02,22,15,09,12.60
2008,02,22,15,10,12.60
2008,02,22,15,11,12.60
2008,02,22,15,12,12.70
2008,02,22,15,13,12.70
2008,02,22,15,14,12.70
2008,02,22,15,15,12.70
2008,02,22,15,16,12.80
2008,02,22,15,17,12.80
2008,02,22,15,18,12.80
2008,02,22,15,19,12.90
2008,02,22,15,20,12.90
2008,02,22,15,21,12.90
2008,02,22,15,22,12.90
2008,02,22,15,23,12.90
2008,02,22,15,24,12.90
2008,02,22,15,25,13.00
2008,02,22,15,26,13.00
2008,02,22,15,27,13.10
2008,02,22,15,28,13.10
2008,02,22,15,29,13.20
2008,02,22,15,30,13.20
2008,02,22,15,31,13.30
2008,02,22,15,32,13.40
2008,02,22,15,33,13.50
2008,02,22,15,34,13.60
2008,02,22,15,35,13.60
2008,02,22,15,36,13.50
2008,02,22,15,37,13.40
2008,02,22,15,38,13.30
2008,02,22,15,39,13.10
2008,02,22,15,40,13.00
2008,02,22,15,41,12.90
2008,02,22,15,42,12.80
2008,02,22,15,43,12.80
2008,02,22,15,44,12.70
2008,02,22,15,45,12.70
2008,02,22,15,46,12.60
2008,02,22,15,47,12.50
2008,02,22,15,48,12.40
2008,02,22,15,49,12.40
2008,02,22,15,50,12.30
2008,02,22,15,51,12.30
2008,02,22,15,52,12.20
2008,02,22,15,53,12.20
2008,02,22,15,54,12.20
2008,02,22,15,55,12.20
2008,02,22,15,56,12.20
2008,02,22,15,57,12.20
2008,02,22,15,58,12.20
2008,02,22,15,59,12.20
2008,02,22,16,00,12.20
2008,02,22,16,01,12.20
2008,02,22,16,02,12.10
2008,02,22,16,03,12.10
2008,02,22,16,04,12.10
2008,02,22,16,05,12.10
2008,02,22,16,06,12.10
2008,02,22,16,07,12.10
2008,02,22,16,08,12.10
2008,02,22,16,09,12.10
2008,02,22,16,10,12.10
2008,02,22,16,11,12.00
2008,02,22,16,12,12.00
2008,02,22,16,13,12.00
2008,02,22,16,14,11.90
2008,02,22,16,15,11.90
2008,02,22,16,16,11.80
2008,02,22,16,17,11.80
2008,02,22,16,18,11.80
2008,02,22,16,19,11.80
2008,02,22,16,20,11.80
2008,02,22,16,21,11.80
2008,02,22,16,22,11.70
2008,02,22,16,23,11.60
2008,02,22,16,24,11.50
2008,02,22,16,25,11.40
2008,02,22,16,26,11.20
2008,02,22,16,27,11.10
2008,02,22,16,28,11.00
2008,02,22,16,29,11.00
2008,02,22,16,30,10.90
2008,02,22,16,31,10.90
2008,02,22,16,32,10.90
2008,02,22,16,33,10.80
2008,02,22,16,34,10.80
2008,02,22,16,35,10.80
2008,02,22,16,36,10.80
2008,02,22,16,37,10.80
2008,02,22,16,38,10.80
2008,02,22,16,39,10.80
2008,02,22,16,40,10.70
2008,02,22,16,41,10.70
2008,02,22,16,42,10.70
2008,02,22,16,43,10.70
2008,02,22,16,44,10.70
2008,02,22,16,45,10.70
2008,02,22,16,46,10.70
2008,02,22,16,47,10.70
2008,02,22,16,48,10.80
2008,02,22,16,49,10.80
2008,02,22,16,50,10.80
2008,02,22,16,51,10.80
2008,02,22,16,52,10.80
2008,02,22,16,53,10.80
2008,02,22,16,54,10.80
2008,02,22,16,55,10.80
2008,02,22,16,56,10.80
2008,02,22,16,57,10.80
2008,02,22,16,58,10.80
2008,02,22,16,59,10.80
2008,02,22,17,00,10.80
2008,02,22,17,01,10.80
2008,02,22,17,02,10.70
2008,02,22,17,03,10.70
2008,02,22,17,04,10.70
2008,02,22,17,05,10.70
2008,02,22,17,06,10.70
2008,02,22,17,07,10.70
2008,02,22,17,08,10.70
2008,02,22,17,09,10.60
2008,02,22,17,10,10.60
2008,02,22,17,11,10.50
2008,02,22,17,12,10.50
2008,02,22,17,13,10.40
2008,02,22,17,14,10.40
2008,02,22,17,15,10.40
2008,02,22,17,16,10.40
2008,02,22,17,17,10.30
2008,02,22,17,18,10.30
2008,02,22,17,19,10.30
2008,02,22,17,20,10.30
2008,02,22,17,21,10.30
2008,02,22,17,22,10.30
2008,02,22,17,23,10.30
2008,02,22,17,24,10.30
2008,02,22,17,25,10.30
2008,02,22,17,26,10.20
2008,02,22,17,27,10.20
2008,02,22,17,28,10.20
2008,02,22,17,29,10.10
2008,02,22,17,30,10.10
2008,02,22,17,31,10.10
2008,02,22,17,32,10.10
2008,02,22,17,33,10.00
2008,02,22,17,34,10.00
2008,02,22,17,35,9.90
2008,02,22,17,36,9.90
2008,02,22,17,37,9.90
2008,02,22,17,38,9.90
2008,02,22,17,39,9.80
2008,02,22,17,40,9.80
2008,02,22,17,41,9.80
2008,02,22,17,42,9.80
2008,02,22,17,43,9.80
2008,02,22,17,44,9.80
2008,02,22,17,45,9.80
2008,02,22,17,46,9.70
2008,02,22,17,47,9.70
2008,02,22,17,48,9.70
2008,02,22,17,49,9.60
2008,02,22,17,50,9.60